Time,TemperatureF,DewpointF,PressureIn,WindDirection,WindDirectionDegrees,WindSpeedMPH,WindSpeedGustMPH,Humidity,HourlyPrecipIn,Conditions,Clouds,dailyrainin,SoftwareType,DateUTC
2014-09-21 00:00:00,73.3,72.0,29.83,NNW,331,0.0,-999.0,96,-99.99,,,1.05,weatherlink.com 1.10,2014-09-21 04:00:00,
2014-09-21 00:15:00,72.9,72.0,29.84,North,0,0.0,-999.0,96,-99.99,,,0.00,weatherlink.com 1.10,2014-09-21 04:15:00,
2014-09-21 00:30:00,72.5,72.0,29.84,North,1,0.0,-999.0,97,-99.99,,,0.00,weatherlink.com 1.10,2014-09-21 04:30:00,
2014-09-21 00:48:00,72.2,71.0,29.84,North,358,0.0,-999.0,96,-99.99,,,0.00,weatherlink.com 1.10,2014-09-21 04:48:00,
2014-09-21 01:00:00,72.2,71.0,29.84,North,5,4.0,-999.0,97,-99.99,,,0.00,weatherlink.com 1.10,2014-09-21 05:00:00,
2014-09-21 01:15:00,72.0,71.0,29.84,North,357,2.0,-999.0,97,-99.99,,,0.00,weatherlink.com 1.10,2014-09-21 05:15:00,
2014-09-21 01:30:00,71.8,71.0,29.84,North,0,0.0,-999.0,97,-99.99,,,0.00,weatherlink.com 1.10,2014-09-21 05:30:00,
2014-09-21 01:48:00,71.8,71.0,29.84,North,1,0.0,-999.0,97,-99.99,,,0.00,weatherlink.com 1.10,2014-09-21 05:48:00,
2014-09-21 02:00:00,71.7,71.0,29.84,NNW,348,0.0,-999.0,97,-99.99,,,0.00,weatherlink.com 1.10,2014-09-21 06:00:00,
2014-09-21 02:15:00,71.4,71.0,29.84,North,359,0.0,-999.0,97,-99.99,,,0.00,weatherlink.com 1.10,2014-09-21 06:15:00,
2014-09-21 02:30:00,71.4,71.0,29.83,North,351,0.0,-999.0,97,-99.99,,,0.00,weatherlink.com 1.10,2014-09-21 06:30:00,
2014-09-21 02:48:00,71.3,70.0,29.83,North,0,0.0,-999.0,97,-99.99,,,0.00,weatherlink.com 1.10,2014-09-21 06:48:00,
2014-09-21 03:00:00,71.3,70.0,29.83,NNW,346,0.0,-999.0,97,-99.99,,,0.00,weatherlink.com 1.10,2014-09-21 07:00:00,
2014-09-21 03:15:00,71.2,70.0,29.83,NNW,345,6.0,-999.0,97,-99.99,,,0.00,weatherlink.com 1.10,2014-09-21 07:15:00,
2014-09-21 03:30:00,71.2,70.0,29.83,NNW,345,0.0,-999.0,97,-99.99,,,0.00,weatherlink.com 1.10,2014-09-21 07:30:00,
2014-09-21 03:48:00,71.0,70.0,29.83,North,352,0.0,-999.0,97,-99.99,,,0.00,weatherlink.com 1.10,2014-09-21 07:48:00,
2014-09-21 04:00:00,70.9,70.0,29.83,NNW,339,5.0,-999.0,97,-99.99,,,0.00,weatherlink.com 1.10,2014-09-21 08:00:00,
2014-09-21 04:15:00,70.7,70.0,29.84,North,0,0.0,-999.0,97,-99.99,,,0.00,weatherlink.com 1.10,2014-09-21 08:15:00,
2014-09-21 04:30:00,70.5,70.0,29.84,NNW,348,0.0,-999.0,97,-99.99,,,0.00,weatherlink.com 1.10,2014-09-21 08:30:00,
2014-09-21 04:48:00,70.4,70.0,29.84,North,352,0.0,-999.0,97,-99.99,,,0.00,weatherlink.com 1.10,2014-09-21 08:48:00,
2014-09-21 05:00:00,70.4,70.0,29.84,North,353,0.0,-999.0,97,-99.99,,,0.00,weatherlink.com 1.10,2014-09-21 09:00:00,
2014-09-21 05:15:00,70.3,69.0,29.84,NNW,348,0.0,-999.0,97,-99.99,,,0.00,weatherlink.com 1.10,2014-09-21 09:15:00,
2014-09-21 05:30:00,70.1,69.0,29.84,North,359,4.0,-999.0,97,-99.99,,,0.00,weatherlink.com 1.10,2014-09-21 09:30:00,
2014-09-21 05:48:00,70.0,69.0,29.85,North,358,0.0,-999.0,97,-99.99,,,0.00,weatherlink.com 1.10,2014-09-21 09:48:00,
2014-09-21 06:00:00,69.8,69.0,29.86,NNW,347,0.0,-999.0,97,-99.99,,,0.00,weatherlink.com 1.10,2014-09-21 10:00:00,
2014-09-21 06:15:00,69.8,69.0,29.86,NNW,347,0.0,-999.0,97,-99.99,,,0.00,weatherlink.com 1.10,2014-09-21 10:15:00,
2014-09-21 06:30:00,69.8,69.0,29.86,NNW,347,0.0,-999.0,97,-99.99,,,0.00,weatherlink.com 1.10,2014-09-21 10:30:00,
2014-09-21 06:48:00,69.6,69.0,29.87,North,355,0.0,-999.0,97,-99.99,,,0.00,weatherlink.com 1.10,2014-09-21 10:48:00,
2014-09-21 07:00:00,69.6,69.0,29.87,North,349,0.0,-999.0,97,-99.99,,,0.00,weatherlink.com 1.10,2014-09-21 11:00:00,
2014-09-21 07:15:00,69.5,69.0,29.87,North,349,0.0,-999.0,97,-99.99,,,0.00,weatherlink.com 1.10,2014-09-21 11:15:00,
2014-09-21 07:30:00,69.3,69.0,29.88,North,349,0.0,-999.0,97,-99.99,,,0.00,weatherlink.com 1.10,2014-09-21 11:30:00,
2014-09-21 07:48:00,69.5,69.0,29.89,NNW,347,0.0,-999.0,97,-99.99,,,0.00,weatherlink.com 1.10,2014-09-21 11:48:00,
2014-09-21 08:00:00,69.8,69.0,29.90,NNW,342,0.0,-999.0,97,-99.99,,,0.00,weatherlink.com 1.10,2014-09-21 12:00:00,
2014-09-21 08:15:00,70.2,69.0,29.91,NNW,348,0.0,-999.0,97,-99.99,,,0.00,weatherlink.com 1.10,2014-09-21 12:15:00,
2014-09-21 08:30:00,71.0,70.0,29.91,North,1,0.0,-999.0,97,-99.99,,,0.00,weatherlink.com 1.10,2014-09-21 12:30:00,
2014-09-21 08:48:00,71.7,71.0,29.92,North,9,2.0,-999.0,96,-99.99,,,0.00,weatherlink.com 1.10,2014-09-21 12:48:00,
2014-09-21 09:00:00,72.6,71.0,29.92,North,1,0.0,-999.0,96,-99.99,,,0.00,weatherlink.com 1.10,2014-09-21 13:00:00,
2014-09-21 09:15:00,73.1,72.0,29.93,North,9,3.0,-999.0,95,-99.99,,,0.00,weatherlink.com 1.10,2014-09-21 13:15:00,
2014-09-21 09:30:00,73.6,72.0,29.93,North,7,0.0,-999.0,94,-99.99,,,0.00,weatherlink.com 1.10,2014-09-21 13:30:00,
2014-09-21 09:48:00,74.6,73.0,29.93,NNE,15,0.0,-999.0,93,-99.99,,,0.00,weatherlink.com 1.10,2014-09-21 13:48:00,
2014-09-21 10:00:00,75.7,73.0,29.93,North,359,0.0,-999.0,92,-99.99,,,0.00,weatherlink.com 1.10,2014-09-21 14:00:00,
2014-09-21 10:15:00,77.5,73.0,29.95,NNE,15,3.0,-999.0,87,-99.99,,,0.00,weatherlink.com 1.10,2014-09-21 14:15:00,
2014-09-21 10:30:00,77.9,74.0,29.94,NNE,22,0.0,-999.0,87,-99.99,,,0.01,weatherlink.com 1.10,2014-09-21 14:30:00,
2014-09-21 10:48:00,78.5,73.0,29.94,North,1,5.0,-999.0,83,-99.99,,,0.01,weatherlink.com 1.10,2014-09-21 14:48:00,
2014-09-21 11:00:00,78.9,74.0,29.94,ENE,60,0.0,-999.0,84,-99.99,,,0.01,weatherlink.com 1.10,2014-09-21 15:00:00,
2014-09-21 11:15:00,78.7,73.0,29.94,NE,54,0.0,-999.0,83,-99.99,,,0.01,weatherlink.com 1.10,2014-09-21 15:15:00,
2014-09-21 11:30:00,79.4,74.0,29.94,ENE,65,0.0,-999.0,82,-99.99,,,0.01,weatherlink.com 1.10,2014-09-21 15:30:00,
2014-09-21 11:48:00,79.9,73.0,29.93,East,101,5.0,-999.0,80,-99.99,,,0.01,weatherlink.com 1.10,2014-09-21 15:48:00,
2014-09-21 12:00:00,79.8,74.0,29.93,ENE,63,0.0,-999.0,82,-99.99,,,0.01,weatherlink.com 1.10,2014-09-21 16:00:00,
2014-09-21 12:15:00,80.2,74.0,29.93,NNE,29,0.0,-999.0,81,-99.99,,,0.01,weatherlink.com 1.10,2014-09-21 16:15:00,
2014-09-21 12:30:00,79.8,74.0,29.93,ENE,63,0.0,-999.0,81,-99.99,,,0.01,weatherlink.com 1.10,2014-09-21 16:30:00,
2014-09-21 12:48:00,80.4,74.0,29.92,ENE,75,0.0,-999.0,80,-99.99,,,0.01,weatherlink.com 1.10,2014-09-21 16:48:00,
2014-09-21 13:00:00,80.3,73.0,29.93,NE,44,8.0,-999.0,79,-99.99,,,0.01,weatherlink.com 1.10,2014-09-21 17:00:00,
2014-09-21 13:15:00,81.0,74.0,29.92,ESE,114,0.0,-999.0,78,-99.99,,,0.01,weatherlink.com 1.10,2014-09-21 17:15:00,
2014-09-21 13:30:00,80.8,74.0,29.91,ENE,58,4.0,-999.0,79,-99.99,,,0.01,weatherlink.com 1.10,2014-09-21 17:30:00,
2014-09-21 13:48:00,80.2,73.0,29.91,East,89,0.0,-999.0,78,-99.99,,,0.01,weatherlink.com 1.10,2014-09-21 17:48:00,
2014-09-21 14:00:00,80.9,73.0,29.90,East,86,1.0,-999.0,77,-99.99,,,0.01,weatherlink.com 1.10,2014-09-21 18:00:00,
2014-09-21 14:15:00,80.9,73.0,29.89,NE,56,6.0,-999.0,76,-99.99,,,0.01,weatherlink.com 1.10,2014-09-21 18:15:00,
2014-09-21 14:30:00,80.8,73.0,29.89,NE,43,7.0,-999.0,77,-99.99,,,0.01,weatherlink.com 1.10,2014-09-21 18:30:00,
2014-09-21 14:48:00,81.2,73.0,29.88,East,83,6.0,-999.0,75,-99.99,,,0.01,weatherlink.com 1.10,2014-09-21 18:48:00,
2014-09-21 15:00:00,82.1,72.0,29.88,ENE,74,1.0,-999.0,71,-99.99,,,0.01,weatherlink.com 1.10,2014-09-21 19:00:00,
2014-09-21 15:15:00,81.2,71.0,29.87,NE,39,3.0,-999.0,71,-99.99,,,0.01,weatherlink.com 1.10,2014-09-21 19:15:00,
2014-09-21 15:30:00,81.6,71.0,29.87,ESE,105,7.0,-999.0,71,-99.99,,,0.01,weatherlink.com 1.10,2014-09-21 19:30:00,
2014-09-21 15:48:00,81.7,72.0,29.88,East,94,4.0,-999.0,73,-99.99,,,0.01,weatherlink.com 1.10,2014-09-21 19:48:00,
2014-09-21 16:00:00,81.8,72.0,29.88,ENE,73,6.0,-999.0,73,-99.99,,,0.01,weatherlink.com 1.10,2014-09-21 20:00:00,
2014-09-21 16:15:00,81.5,72.0,29.88,ENE,71,5.0,-999.0,73,-99.99,,,0.01,weatherlink.com 1.10,2014-09-21 20:15:00,
2014-09-21 16:30:00,81.7,72.0,29.88,ENE,70,0.0,-999.0,72,-99.99,,,0.01,weatherlink.com 1.10,2014-09-21 20:30:00,
2014-09-21 16:48:00,81.4,71.0,29.88,ENE,77,2.0,-999.0,71,-99.99,,,0.01,weatherlink.com 1.10,2014-09-21 20:48:00,
2014-09-21 17:00:00,81.3,71.0,29.89,ENE,77,6.0,-999.0,71,-99.99,,,0.01,weatherlink.com 1.10,2014-09-21 21:00:00,
2014-09-21 17:15:00,81.6,72.0,29.89,East,101,4.0,-999.0,72,-99.99,,,0.01,weatherlink.com 1.10,2014-09-21 21:15:00,
2014-09-21 17:30:00,81.4,72.0,29.89,ESE,121,0.0,-999.0,72,-99.99,,,0.01,weatherlink.com 1.10,2014-09-21 21:30:00,
2014-09-21 17:48:00,81.4,71.0,29.89,ESE,117,0.0,-999.0,71,-99.99,,,0.01,weatherlink.com 1.10,2014-09-21 21:48:00,
2014-09-21 18:00:00,81.3,71.0,29.89,SE,128,4.0,-999.0,70,-99.99,,,0.01,weatherlink.com 1.10,2014-09-21 22:00:00,
2014-09-21 18:15:00,81.2,71.0,29.89,ESE,109,2.0,-999.0,70,-99.99,,,0.01,weatherlink.com 1.10,2014-09-21 22:15:00,
2014-09-21 18:30:00,80.8,71.0,29.89,East,100,0.0,-999.0,72,-99.99,,,0.01,weatherlink.com 1.10,2014-09-21 22:30:00,
2014-09-21 18:48:00,80.5,71.0,29.89,ENE,75,0.0,-999.0,72,-99.99,,,0.01,weatherlink.com 1.10,2014-09-21 22:48:00,